Temp
-7 -8 -9 -10 -10 -9 -10 -10 -10 -9 -9 -9 -9 -9 -8 -8 -8 -8 -9 -9 -9 -9 -9 -9 -8 -8 -8 -7 -7 -7 -7 -7 -7 -7 -7 -7 -7 -7 -7 -8 -8 -7 -7 -7 -7 -8 -8 -9 -9
-8 -9 -9 -10 -10 -10 -10 -9 -9 -9 -10 -10 -9 -8 -8 -8 -8 -9 -9 -9 -9 -9 -9 -9 -8 -8 -8 -8 -7 -7 -7 -7 -7 -8 -8 -8 -8 -8 -8 -8 -8 -7 -7 -7 -8 -8 -8 -9 -9
-8 -8 -9 -9 -10 -10 -10 -10 -9 -10 -10 -10 -10 -8 -8 -8 -9 -9 -9 -9 -9 -9 -9 -9 -8 -8 -8 -8 -8 -7 -7 -8 -8 -8 -8 -8 -8 -8 -8 -8 -8 -7 -7 -7 -8 -8 -8 -9 -9
-9 -8 -9 -9 -10 -10 -11 -10 -10 -9 -10 -10 -10 -9 -9 -9 -9 -9 -9 -9 -9 -9 -9 -9 -8 -8 -8 -8 -8 -8 -8 -8 -8 -8 -8 -8 -8 -8 -8 -8 -8 -8 -7 -8 -8 -8 -8 -9 -8
-9 -9 -8 -10 -10 -11 -11 -11 -9 -9 -9 -10 -10 -9 -9 -9 -9 -9 -9 -10 -9 -9 -9 -9 -8 -8 -8 -8 -8 -8 -8 -8 -8 -8 -8 -8 -8 -8 -8 -8 -8 -8 -7 -8 -8 -8 -8 -9 -8
-10 -9 -9 -10 -11 -11 -10 -11 -10 -9 -9 -9 -10 -9 -9 -9 -9 -9 -9 -10 -10 -9 -9 -9 -9 -8 -8 -8 -8 -8 -8 -8 -8 -8 -8 -8 -8 -8 -8 -8 -8 -8 -8 -8 -8 -8 -9 -8 -8
-10 -10 -9 -10 -11 -11 -12 -11 -10 -9 -10 -9 -9 -9 -9 -9 -9 -9 -9 -10 -10 -10 -10 -9 -9 -9 -8 -8 -8 -8 -8 -8 -8 -8 -8 -8 -8 -8 -8 -8 -8 -8 -8 -8 -8 -8 -9 -8 -8
-11 -10 -10 -10 -11 -12 -12 -11 -10 -10 -9 -10 -10 -10 -9 -9 -9 -9 -9 -10 -10 -10 -10 -9 -9 -9 -9 -9 -9 -8 -8 -8 -8 -8 -8 -8 -8 -8 -8 -8 -8 -8 -8 -8 -8 -9 -9 -9 -8
-11 -10 -10 -11 -11 -11 -11 -11 -11 -10 -10 -10 -10 -10 -10 -10 -10 -9 -9 -10 -10 -10 -10 -9 -9 -9 -9 -9 -9 -9 -8 -8 -8 -8 -8 -8 -8 -8 -8 -8 -8 -8 -8 -8 -8 -9 -9 -9 -9
-11 -11 -11 -11 -11 -11 -11 -11 -11 -11 -11 -11 -11 -10 -11 -10 -10 -10 -9 -10 -10 -10 -10 -10 -9 -9 -9 -9 -9 -9 -9 -9 -8 -8 -8 -8 -8 -8 -8 -8 -8 -8 -8 -8 -8 -9 -9 -9 -9
-11 -10 -11 -11 -11 -11 -11 -12 -11 -11 -11 -11 -11 -10 -10 -11 -10 -10 -9 -9 -10 -10 -10 -10 -9 -9 -9 -9 -9 -9 -9 -9 -9 -8 -8 -8 -8 -8 -8 -8 -8 -8 -8 -8 -8 -9 -9 -10 -9
-11 -11 -11 -12 -12 -11 -11 -11 -12 -11 -12 -12 -11 -11 -10 -10 -11 -11 -10 -10 -10 -10 -10 -10 -9 -9 -9 -9 -9 -9 -9 -9 -9 -9 -8 -8 -8 -8 -8 -8 -8 -8 -8 -8 -8 -9 -9 -10 -10
-11 -12 -12 -12 -12 -11 -11 -11 -12 -11 -12 -12 -12 -11 -11 -11 -11 -11 -11 -10 -10 -10 -10 -10 -10 -9 -9 -9 -9 -9 -9 -9 -9 -9 -9 -8 -8 -8 -8 -8 -8 -8 -8 -8 -8 -9 -9 -10 -10
-12 -11 -12 -12 -12 -12 -11 -12 -11 -12 -13 -12 -12 -11 -12 -11 -12 -11 -11 -11 -11 -10 -10 -10 -10 -9 -10 -10 -10 -10 -9 -9 -9 -9 -9 -9 -8 -9 -9 -9 -9 -8 -8 -8 -9 -9 -9 -10 -10
-12 -12 -12 -12 -13 -12 -13 -11 -11 -13 -13 -13 -12 -12 -12 -12 -12 -12 -11 -11 -11 -11 -10 -10 -10 -10 -10 -10 -10 -10 -10 -9 -9 -9 -9 -9 -9 -9 -9 -9 -9 -9 -8 -9 -9 -9 -9 -10 -10
-13 -12 -12 -13 -13 -13 -12 -10 -12 -13 -13 -12 -13 -12 -11 -12 -12 -12 -12 -11 -11 -11 -11 -10 -10 -10 -10 -10 -10 -10 -10 -10 -9 -9 -9 -9 -9 -9 -9 -9 -9 -9 -9 -9 -9 -9 -10 -10 -10
-14 -13 -13 -12 -14 -14 -13 -11 -11 -12 -12 -12 -12 -12 -11 -11 -12 -12 -12 -11 -11 -11 -11 -11 -11 -11 -10 -10 -10 -10 -10 -10 -9 -9 -9 -9 -9 -9 -9 -9 -9 -9 -9 -9 -9 -9 -10 -10 -10
-15 -14 -13 -13 -14 -14 -13 -12 -12 -12 -13 -12 -12 -12 -11 -11 -11 -12 -12 -12 -11 -11 -11 -11 -10 -11 -10 -10 -10 -10 -10 -10 -9 -9 -9 -9 -9 -9 -9 -9 -9 -9 -9 -9 -9 -9 -10 -10 -10
-16 -15 -14 -14 -14 -14 -14 -12 -13 -12 -12 -12 -12 -12 -11 -11 -11 -12 -12 -12 -11 -11 -10 -11 -11 -11 -11 -10 -10 -10 -10 -10 -9 -9 -9 -9 -9 -9 -9 -9 -9 -9 -9 -9 -9 -10 -10 -10 -11
-18 -17 -16 -15 -15 -16 -14 -13 -13 -13 -12 -12 -12 -12 -12 -11 -11 -11 -11 -12 -11 -11 -11 -11 -11 -11 -11 -10 -10 -10 -10 -10 -9 -10 -9 -9 -9 -9 -9 -9 -9 -10 -10 -9 -9 -10 -10 -10 -11
-20 -19 -18 -17 -16 -16 -16 -13 -13 -13 -13 -12 -12 -12 -12 -12 -11 -11 -11 -12 -12 -11 -11 -11 -11 -11 -11 -11 -10 -10 -10 -10 -10 -10 -10 -9 -9 -9 -9 -9 -9 -10 -10 -10 -10 -10 -10 -10 -11
-20 -20 -19 -19 -18 -17 -17 -14 -13 -13 -13 -12 -11 -12 -12 -12 -12 -12 -11 -11 -12 -11 -11 -11 -11 -11 -11 -11 -10 -10 -10 -10 -10 -10 -9 -9 -9 -10 -9 -9 -10 -10 -10 -10 -10 -10 -10 -10 -11
-20 -20 -19 -19 -19 -19 -17 -17 -13 -13 -13 -12 -12 -12 -12 -13 -13 -12 -12 -12 -12 -12 -11 -11 -11 -12 -11 -11 -11 -11 -10 -10 -10 -10 -10 -10 -10 -10 -10 -10 -10 -10 -10 -10 -10 -10 -10 -11 -11
-20 -19 -19 -19 -19 -18 -17 -18 -14 -14 -13 -14 -14 -13 -13 -13 -14 -13 -13 -12 -12 -13 -12 -11 -11 -11 -11 -11 -11 -11 -10 -10 -10 -10 -10 -10 -10 -10 -10 -10 -10 -10 -11 -10 -10 -10 -10 -10 -11
-20 -20 -20 -19 -19 -18 -18 -20 -15 -15 -15 -14 -14 -13 -13 -13 -14 -13 -13 -13 -12 -12 -12 -11 -11 -11 -11 -11 -11 -11 -11 -10 -10 -10 -10 -10 -10 -10 -10 -10 -10 -10 -11 -11 -10 -11 -11 -11 -11
-23 -25 -26 -25 -22 -22 -24 -20 -16 -16 -16 -15 -14 -14 -14 -13 -14 -14 -13 -13 -13 -12 -13 -12 -11 -11 -11 -11 -11 -11 -11 -11 -10 -10 -10 -10 -10 -10 -10 -10 -10 -10 -11 -11 -11 -11 -11 -11 -11
-27 -29 -30 -30 -29 -29 -27 -21 -17 -17 -16 -16 -15 -16 -14 -14 -14 -14 -14 -14 -13 -13 -12 -12 -12 -11 -11 -11 -12 -11 -11 -11 -11 -10 -11 -10 -10 -10 -10 -10 -11 -11 -11 -11 -11 -11 -11 -11 -11
-32 -31 -30 -30 -30 -29 -28 -26 -22 -21 -19 -18 -17 -16 -16 -16 -14 -14 -14 -14 -13 -13 -13 -13 -12 -12 -11 -11 -12 -12 -11 -11 -11 -11 -11 -11 -10 -10 -11 -11 -11 -11 -11 -11 -11 -11 -11 -11 -12
-31 -30 -30 -30 -30 -30 -29 -28 -26 -24 -24 -22 -20 -18 -17 -17 -15 -14 -14 -14 -14 -13 -13 -12 -12 -12 -12 -11 -11 -12 -11 -11 -11 -11 -11 -11 -10 -10 -11 -11 -11 -11 -11 -11 -11 -12 -11 -11 -12
-31 -30 -30 -31 -30 -29 -29 -27 -26 -25 -23 -23 -22 -20 -18 -18 -17 -16 -14 -14 -14 -13 -13 -12 -13 -13 -12 -12 -12 -12 -12 -11 -11 -11 -11 -11 -11 -11 -11 -11 -11 -11 -11 -11 -11 -12 -12 -12 -12
Height
5801 5800 5801 5803 5807 5808 5807 5805 5806 5809 5811 5810 5809 5811 5813 5815 5817 5820 5820 5820 5821 5821 5822 5823 5823 5824 5825 5827 5827 5828 5828 5828 5829 5828 5827 5826 5824 5823 5821 5818 5815 5812 5808 5803 5798 5791 5785 5777 5769
5798 5797 5798 5799 5802 5804 5801 5803 5806 5806 5808 5806 5805 5808 5810 5813 5815 5815 5816 5818 5819 5820 5821 5822 5823 5824 5825 5826 5827 5828 5828 5829 5829 5828 5827 5825 5824 5822 5820 5817 5814 5811 5806 5801 5795 5788 5781 5773 5764
5795 5794 5796 5795 5797 5800 5797 5800 5800 5802 5803 5803 5802 5805 5807 5810 5812 5813 5815 5816 5818 5819 5820 5821 5822 5823 5824 5825 5827 5828 5829 5829 5828 5827 5826 5825 5823 5822 5819 5817 5814 5810 5805 5799 5793 5786 5778 5769 5757
5791 5792 5792 5792 5793 5793 5792 5793 5794 5795 5797 5798 5798 5801 5804 5806 5809 5810 5812 5812 5815 5817 5818 5819 5820 5822 5823 5825 5827 5828 5829 5829 5828 5826 5826 5825 5823 5821 5819 5816 5813 5809 5804 5797 5791 5783 5774 5764 5753
5787 5787 5788 5788 5789 5788 5787 5785 5787 5793 5796 5796 5796 5796 5799 5803 5805 5807 5808 5809 5812 5815 5817 5818 5819 5821 5823 5824 5826 5827 5828 5828 5827 5826 5825 5824 5822 5821 5818 5816 5812 5807 5802 5796 5789 5781 5771 5761 5752
5782 5784 5784 5783 5784 5783 5783 5780 5785 5788 5789 5791 5792 5793 5795 5799 5801 5803 5805 5806 5808 5812 5814 5816 5818 5820 5822 5823 5825 5827 5827 5827 5826 5825 5825 5823 5822 5820 5817 5815 5812 5806 5800 5795 5788 5780 5770 5761 5751
5776 5778 5779 5779 5779 5779 5774 5775 5779 5781 5784 5785 5787 5791 5794 5796 5797 5799 5802 5803 5805 5809 5812 5813 5816 5819 5821 5823 5824 5826 5826 5826 5826 5825 5824 5823 5821 5819 5817 5815 5810 5805 5800 5794 5788 5779 5770 5761 5750
5769 5772 5774 5774 5773 5774 5769 5769 5772 5776 5779 5779 5783 5788 5789 5790 5793 5796 5798 5800 5802 5805 5808 5810 5814 5817 5819 5821 5823 5824 5825 5825 5824 5824 5823 5822 5819 5818 5816 5813 5809 5805 5799 5794 5787 5780 5771 5761 5752
5763 5766 5769 5768 5767 5768 5763 5767 5769 5771 5773 5775 5777 5781 5784 5785 5788 5790 5794 5796 5799 5802 5805 5807 5811 5815 5818 5819 5821 5822 5823 5823 5823 5823 5822 5821 5819 5818 5815 5812 5809 5804 5799 5794 5788 5781 5772 5764 5755
5756 5758 5762 5760 5760 5761 5760 5761 5762 5766 5767 5770 5770 5772 5776 5778 5783 5784 5788 5792 5795 5798 5801 5804 5807 5811 5815 5817 5818 5820 5821 5822 5821 5821 5821 5820 5819 5817 5815 5812 5808 5804 5799 5795 5789 5782 5775 5767 5760
5748 5751 5751 5753 5752 5752 5754 5755 5755 5758 5762 5761 5763 5766 5768 5771 5778 5781 5784 5786 5790 5794 5797 5800 5803 5807 5811 5814 5816 5818 5819 5820 5820 5820 5820 5819 5818 5816 5814 5811 5808 5804 5799 5796 5790 5784 5777 5771 5765
5738 5741 5741 5743 5743 5743 5745 5746 5749 5750 5756 5753 5757 5759 5762 5765 5770 5775 5779 5782 5786 5790 5794 5796 5799 5803 5807 5811 5813 5815 5816 5818 5818 5818 5818 5818 5816 5815 5813 5810 5807 5804 5800 5796 5792 5786 5780 5775 5770
5727 5730 5731 5734 5735 5735 5735 5740 5743 5746 5748 5746 5749 5751 5755 5758 5762 5767 5771 5777 5782 5786 5789 5791 5793 5798 5802 5807 5810 5812 5814 5815 5816 5816 5816 5816 5815 5814 5812 5810 5806 5804 5800 5796 5793 5788 5782 5778 5774
5719 5719 5722 5723 5725 5726 5725 5730 5732 5742 5739 5737 5740 5744 5746 5751 5755 5758 5764 5770 5776 5779 5783 5786 5788 5793 5798 5802 5806 5809 5811 5812 5813 5814 5814 5815 5814 5813 5812 5809 5806 5804 5800 5797 5793 5789 5784 5780 5778
5706 5709 5710 5711 5712 5715 5713 5719 5724 5730 5728 5729 5731 5737 5739 5743 5745 5752 5757 5760 5766 5770 5776 5782 5784 5788 5793 5797 5801 5804 5807 5809 5811 5812 5813 5813 5813 5812 5811 5809 5806 5804 5801 5797 5794 5790 5785 5782 5779
5692 5694 5697 5697 5696 5699 5702 5708 5712 5713 5717 5720 5722 5727 5730 5734 5738 5744 5747 5752 5757 5763 5769 5774 5779 5782 5787 5792 5796 5800 5803 5806 5807 5809 5810 5811 5811 5811 5810 5808 5805 5803 5801 5797 5794 5790 5786 5783 5781
5676 5678 5679 5681 5683 5683 5690 5688 5700 5700 5702 5708 5712 5717 5721 5726 5731 5735 5739 5744 5749 5755 5761 5767 5772 5776 5780 5785 5791 5795 5798 5802 5804 5806 5808 5809 5809 5809 5808 5807 5805 5803 5800 5797 5794 5790 5786 5784 5782
5660 5661 5662 5663 5667 5669 5678 5675 5685 5692 5695 5700 5703 5706 5711 5716 5723 5727 5731 5735 5741 5747 5753 5759 5764 5770 5775 5779 5785 5790 5793 5797 5800 5802 5804 5806 5806 5806 5806 5805 5803 5802 5800 5797 5794 5790 5787 5784 5782
5642 5644 5645 5647 5646 5650 5657 5659 5665 5676 5684 5689 5693 5699 5704 5707 5711 5717 5722 5727 5732 5738 5744 5751 5757 5763 5769 5775 5780 5784 5786 5790 5795 5798 5800 5802 5803 5804 5803 5803 5802 5800 5798 5797 5794 5790 5787 5785 5782
5628 5626 5629 5631 5630 5628 5634 5644 5644 5662 5671 5678 5683 5688 5695 5698 5702 5706 5713 5717 5724 5729 5737 5742 5749 5755 5762 5768 5772 5776 5780 5785 5790 5794 5796 5798 5799 5800 5800 5800 5799 5798 5797 5795 5793 5790 5787 5785 5783
5616 5610 5610 5611 5613 5612 5612 5624 5633 5648 5653 5663 5672 5680 5684 5689 5692 5694 5700 5707 5712 5720 5728 5735 5741 5747 5754 5759 5763 5769 5775 5782 5786 5788 5791 5793 5796 5797 5797 5797 5797 5796 5795 5793 5792 5790 5786 5785 5783
5605 5591 5594 5595 5596 5590 5599 5601 5618 5630 5640 5649 5662 5665 5670 5676 5680 5683 5687 5695 5701 5709 5716 5724 5730 5737 5744 5751 5756 5763 5770 5773 5775 5781 5786 5789 5791 5792 5793 5793 5794 5793 5792 5791 5791 5789 5786 5783 5782
5584 5573 5577 5579 5579 5573 5592 5579 5605 5605 5622 5641 5641 5648 5654 5659 5665 5671 5675 5681 5689 5694 5704 5712 5719 5726 5733 5741 5748 5754 5761 5766 5770 5776 5780 5783 5785 5787 5788 5789 5790 5790 5789 5788 5788 5787 5784 5782 5780
5563 5551 5559 5560 5559 5556 5573 5561 5565 5593 5610 5614 5623 5630 5638 5645 5650 5657 5663 5666 5675 5683 5690 5700 5709 5717 5724 5732 5738 5746 5753 5758 5763 5770 5773 5776 5779 5781 5783 5785 5786 5786 5786 5786 5785 5784 5782 5780 5779
5541 5531 5532 5534 5536 5534 5543 5527 5547 5578 5585 5590 5599 5610 5620 5628 5635 5642 5649 5655 5662 5672 5680 5688 5697 5707 5714 5722 5729 5736 5743 5748 5755 5760 5765 5770 5773 5776 5778 5780 5781 5782 5783 5783 5782 5782 5781 5778 5777
5524 5515 5513 5504 5509 5507 5510 5510 5541 5544 5554 5565 5579 5591 5599 5611 5620 5627 5635 5640 5647 5657 5666 5675 5686 5696 5705 5713 5720 5726 5733 5739 5746 5752 5757 5762 5766 5769 5772 5775 5776 5777 5778 5779 5779 5778 5778 5776 5775
5508 5505 5504 5495 5496 5488 5493 5498 5513 5519 5532 5548 5561 5570 5580 5592 5602 5610 5616 5625 5633 5641 5653 5663 5673 5682 5692 5703 5710 5716 5724 5729 5737 5744 5749 5753 5758 5762 5766 5768 5770 5772 5774 5775 5776 5775 5775 5774 5773
5499 5502 5500 5497 5490 5485 5483 5482 5485 5501 5514 5522 5530 5544 5561 5566 5579 5590 5601 5609 5620 5628 5638 5647 5659 5669 5679 5690 5699 5706 5714 5720 5727 5734 5740 5745 5749 5754 5758 5762 5764 5767 5769 5771 5772 5772 5772 5771 5771
5502 5499 5494 5491 5487 5481 5474 5471 5481 5490 5502 5505 5510 5525 5539 5555 5563 5575 5585 5597 5606 5615 5624 5635 5645 5655 5666 5677 5687 5695 5703 5710 5718 5724 5731 5737 5741 5746 5750 5754 5757 5761 5763 5766 5767 5767 5768 5767 5768
5495 5493 5490 5485 5481 5477 5469 5463 5481 5488 5491 5492 5495 5501 5512 5531 5545 5556 5566 5579 5590 5601 5611 5624 5634 5644 5654 5665 5675 5684 5691 5700 5708 5715 5722 5727 5733 5738 5742 5746 5750 5755 5758 5760 5762 5763 5764 5764 5764
Wind_Speed
16 15 20 26 22 19 16 21 22 20 17 18 17 17 16 16 14 12 12 12 10 10 9 8 8 9 9 9 9 8 8 7 5 4 4 5 8 10 12 15 16 19 22 24 29 35 38 41 44
18 16 16 23 24 22 23 21 20 21 20 19 21 17 16 15 14 13 13 12 12 11 10 9 9 10 11 11 10 10 8 7 5 3 3 6 9 10 11 14 17 21 24 27 31 37 41 43 46
19 18 17 16 23 20 25 23 22 23 22 22 23 18 18 15 14 14 12 13 13 13 11 9 10 12 13 12 11 10 8 6 5 4 4 7 9 10 12 15 19 22 26 28 34 39 42 45 51
20 18 19 16 13 25 24 26 27 27 24 27 24 21 19 18 17 15 14 15 14 14 12 10 12 15 15 14 12 11 9 8 7 5 6 8 10 11 14 17 20 23 25 29 35 41 43 47 52
21 21 19 17 15 21 26 31 32 27 24 27 24 22 23 20 19 18 16 16 15 15 12 12 14 17 17 15 13 12 11 9 8 7 8 9 10 12 15 20 24 24 26 30 36 41 45 47 52
23 21 20 20 17 20 24 31 32 30 29 28 28 24 25 24 21 20 18 17 17 16 13 13 16 19 18 17 15 13 13 9 8 9 8 8 8 12 15 20 26 27 28 30 37 41 43 46 50
24 21 21 22 19 19 26 29 30 33 30 31 31 26 24 26 25 22 20 20 19 18 15 15 18 21 19 18 16 16 14 11 8 8 6 5 7 12 15 18 26 29 29 30 36 40 42 44 50
27 23 21 23 24 21 29 32 32 31 31 31 32 29 25 29 28 24 21 23 21 19 18 17 21 22 21 20 18 18 15 11 8 6 7 8 7 11 15 19 25 29 30 30 35 39 41 44 49
29 25 23 25 28 26 33 31 30 29 31 30 31 30 31 31 30 29 23 25 24 22 20 20 23 24 23 22 20 20 16 11 7 4 4 6 10 13 15 20 25 29 30 29 33 37 40 43 48
30 28 26 31 31 30 32 32 32 29 28 29 33 35 33 34 33 33 25 26 27 25 22 22 26 26 25 24 22 21 18 12 8 3 2 5 8 12 16 19 25 29 29 28 30 34 37 40 45
34 30 32 32 34 36 33 32 34 33 28 31 34 37 35 36 34 34 30 29 30 26 24 25 29 30 28 26 24 22 19 14 8 4 2 5 8 12 15 19 22 27 28 27 28 31 35 37 39
37 34 34 34 37 40 39 36 33 33 29 34 33 36 37 37 36 35 32 31 31 29 27 27 32 33 31 29 27 24 20 15 9 5 1 5 9 13 15 17 21 26 26 26 26 28 31 33 33
42 39 38 37 38 41 43 42 34 32 32 36 35 36 36 38 38 37 35 33 32 30 30 30 33 36 34 31 29 27 23 17 12 7 2 4 8 13 15 17 20 24 25 24 24 25 27 28 28
46 46 44 42 40 41 45 45 43 32 33 38 38 36 37 36 39 40 37 34 34 34 32 32 34 38 36 34 31 29 26 20 15 10 5 4 7 11 14 16 18 22 23 23 22 23 23 25 25
52 51 50 48 46 43 46 47 44 37 37 40 40 37 37 35 40 41 40 39 38 37 35 33 36 39 39 37 34 31 27 23 18 13 8 6 7 10 13 15 16 19 21 21 22 21 21 22 22
56 58 56 52 53 52 50 50 45 42 43 42 41 40 40 39 37 41 45 43 42 40 36 36 37 41 41 39 36 33 29 25 21 17 12 9 8 9 11 14 15 17 19 20 20 19 19 18 20
57 59 60 61 56 56 54 59 50 49 50 47 45 42 42 42 39 40 47 47 45 43 41 38 38 41 43 42 39 35 32 28 24 20 16 13 11 9 11 13 13 15 17 18 18 18 17 16 16
59 60 62 63 60 59 57 63 56 52 49 51 50 46 45 43 40 40 46 50 48 47 44 41 40 42 43 44 41 37 33 30 27 23 19 16 13 10 11 12 12 13 16 17 17 17 16 14 12
61 63 64 65 66 66 63 67 64 57 55 52 50 52 47 44 45 42 44 50 53 51 48 44 41 40 43 43 41 40 38 33 29 24 20 18 16 12 12 12 12 12 14 15 16 16 15 13 11
57 63 64 66 68 70 70 70 70 62 58 55 53 52 51 48 45 46 44 49 55 53 50 47 43 42 43 43 44 43 41 36 30 25 22 21 18 14 13 12 13 12 13 15 15 14 14 13 11
54 60 62 67 70 72 73 77 74 67 64 61 56 53 52 53 49 47 47 47 52 56 52 49 46 43 42 44 46 45 41 36 31 27 25 23 18 15 15 13 13 13 12 14 14 13 13 12 11
51 60 63 66 69 75 72 78 76 73 70 65 58 58 55 53 54 50 50 49 50 57 55 52 49 46 44 45 46 45 41 39 37 32 28 23 20 18 17 14 14 15 11 12 14 13 12 12 11
54 62 64 65 69 75 71 79 73 77 72 66 67 62 59 56 58 54 52 52 51 54 58 55 52 50 47 45 45 45 43 42 39 33 29 26 23 22 19 16 15 15 13 12 13 13 12 12 11
62 70 68 68 72 77 73 77 87 76 72 70 67 68 63 59 58 59 55 56 53 52 58 58 56 53 50 47 46 44 43 43 40 35 32 29 26 25 21 19 18 17 15 12 12 13 12 11 11
62 67 68 70 72 78 75 80 86 74 73 74 70 69 66 63 61 61 59 55 55 52 55 61 59 56 53 49 48 46 43 44 42 38 36 33 29 27 24 22 20 19 16 12 11 12 12 11 11
49 49 51 59 64 67 59 74 76 77 75 76 74 72 71 65 63 63 62 60 56 54 52 59 59 58 55 51 48 47 46 46 44 40 38 35 31 30 26 23 23 21 17 13 13 12 11 10 12
35 32 30 35 35 37 43 65 76 74 74 72 71 69 72 71 65 66 63 62 59 57 53 57 60 60 57 54 50 48 46 47 45 42 40 37 35 32 29 26 25 21 20 15 14 11 12 10 12
25 20 20 27 31 38 32 36 51 58 65 67 71 70 67 60 73 67 65 65 62 57 55 55 58 61 59 56 53 50 47 46 46 45 42 40 38 35 31 29 27 24 21 17 16 12 13 11 12
19 13 16 18 30 38 38 35 19 25 26 38 55 67 66 65 56 69 67 63 65 58 57 56 56 61 61 58 55 53 51 49 47 45 44 42 41 37 35 32 30 26 22 19 17 13 13 12 13
16 16 24 24 24 34 44 39 7 16 24 27 38 63 61 64 66 54 66 68 64 63 57 55 55 58 61 59 56 55 55 51 48 47 45 43 42 39 37 34 32 27 23 21 19 15 14 13 14
Wind_Direction
274 267 246 234 240 236 243 235 234 239 236 259 259 255 239 231 236 236 246 246 238 234 224 229 233 206 175 164 157 149 138 127 107 85 58 32 27 25 16 13 8 6 4 359 353 353 348 341 339
271 269 260 240 234 237 239 250 244 236 240 252 258 251 231 228 231 235 237 246 240 232 222 227 217 196 173 166 163 157 145 125 109 87 55 38 37 24 16 17 12 8 4 359 356 353 349 345 341
269 268 270 260 236 240 248 247 246 242 236 242 256 243 226 228 231 234 240 246 244 231 222 224 207 192 177 168 168 162 147 132 117 93 67 52 39 26 25 18 8 6 3 1 359 354 350 349 347
259 260 266 267 254 235 244 244 240 242 233 236 242 239 228 225 234 235 238 242 243 230 221 220 204 191 180 173 172 161 149 133 112 93 73 61 46 36 26 17 12 6 3 6 0 357 353 354 352
257 257 260 264 253 242 242 242 242 243 240 239 241 234 231 227 234 248 239 242 237 229 218 217 205 193 184 179 174 166 155 132 100 86 86 72 58 35 26 21 16 8 7 7 3 358 357 356 354
264 257 255 260 252 248 248 251 251 246 244 238 241 234 233 227 234 247 250 237 231 223 217 216 207 197 189 182 175 172 163 139 103 92 101 79 44 30 27 18 16 11 9 8 5 1 1 0 358
266 258 257 259 256 249 247 248 248 246 244 245 242 243 238 234 232 241 249 237 227 216 217 216 207 200 193 184 179 177 168 151 117 89 88 57 30 26 19 12 10 11 10 9 6 4 4 4 359
262 260 256 261 256 246 249 248 246 248 246 244 248 242 240 233 234 239 247 238 225 218 215 210 206 202 196 185 185 181 174 160 138 101 71 50 28 13 6 9 8 9 11 11 7 6 8 6 3
260 257 256 260 259 247 257 259 258 258 252 244 245 242 242 240 233 235 237 233 223 219 216 210 205 203 199 189 190 187 183 173 155 128 80 41 27 17 11 6 7 9 10 11 8 9 12 11 9
262 258 253 258 259 257 254 259 262 255 254 253 243 241 235 241 230 235 231 231 222 221 217 210 204 202 202 195 194 192 192 183 170 156 68 28 10 16 11 8 5 9 10 12 8 11 17 16 14
264 262 255 254 255 256 256 253 256 258 252 248 242 243 237 234 233 235 235 226 224 223 220 212 205 202 203 200 197 197 197 192 179 176 66 22 12 17 10 5 3 6 9 11 9 12 21 20 19
264 262 257 252 251 251 253 253 251 255 254 256 250 245 242 233 233 229 234 230 223 224 224 217 208 203 204 204 201 201 198 196 193 197 46 8 7 11 8 3 3 4 8 9 10 13 22 24 20
262 261 260 258 254 251 254 254 256 253 252 251 251 248 244 239 233 227 228 228 222 225 225 221 212 205 207 206 206 206 207 205 206 214 235 353 1 4 5 3 3 3 6 7 9 14 22 26 25
260 260 260 259 254 252 252 253 251 248 251 251 247 247 248 240 235 232 227 224 221 222 226 223 217 209 207 209 209 210 213 215 217 225 242 307 347 357 359 358 360 2 3 4 7 14 20 25 28
260 259 259 259 254 250 251 248 249 249 240 249 254 247 248 244 235 233 227 224 221 220 224 224 221 213 212 211 211 215 217 218 222 231 240 274 317 345 350 351 357 359 2 359 5 13 20 20 27
257 259 256 254 255 249 246 245 244 247 242 240 244 248 243 244 239 230 230 224 221 222 221 224 222 217 213 214 214 216 219 221 223 233 243 261 289 322 339 344 350 355 0 356 1 10 17 20 19
256 255 255 256 253 251 249 250 238 238 242 239 239 241 244 243 242 234 230 227 223 221 220 222 223 221 215 215 216 218 221 222 226 234 243 253 271 297 322 334 341 351 357 353 357 5 11 18 16
257 255 253 254 252 253 250 252 245 241 243 246 241 237 240 242 241 238 231 230 224 222 221 220 223 222 220 216 218 219 223 224 228 233 240 249 260 279 303 321 330 344 353 350 352 359 4 9 11
259 258 254 255 256 253 249 248 248 242 241 241 240 244 242 240 240 236 234 231 227 222 220 220 222 223 222 220 219 221 223 225 228 234 238 247 255 266 287 308 317 332 347 348 346 354 358 0 1
262 259 258 255 256 257 252 245 250 244 239 241 243 241 239 242 241 238 233 233 229 225 221 219 220 222 223 222 222 221 224 225 229 237 239 244 251 260 275 294 305 319 338 344 340 347 352 353 356
271 270 264 260 256 257 256 247 247 247 242 239 240 243 241 239 239 239 235 230 230 228 223 221 221 220 222 222 224 224 226 227 233 237 238 242 249 255 266 280 292 304 327 336 332 336 345 345 348
268 265 265 265 262 261 258 255 245 247 246 243 238 238 238 236 237 237 237 230 228 227 227 222 221 220 219 222 224 226 224 225 229 232 239 245 247 250 259 271 280 289 309 327 325 327 338 337 340
275 272 267 262 260 262 259 260 246 245 243 243 240 237 234 234 232 232 234 233 226 225 226 224 220 220 218 219 223 224 224 226 232 234 239 241 242 248 255 263 269 277 291 312 317 318 329 331 331
281 279 274 269 264 257 257 258 250 245 243 240 240 235 232 229 233 230 231 231 229 226 224 223 222 219 218 218 220 221 222 226 229 232 235 237 239 246 251 256 260 267 279 298 309 311 319 328 320
291 284 279 270 264 261 257 254 253 247 246 243 238 236 233 229 228 231 229 231 230 224 223 223 223 220 219 216 219 219 218 223 226 227 232 236 236 241 246 250 254 259 271 285 296 301 309 318 312
295 284 280 277 268 266 261 255 248 247 242 241 240 237 234 228 226 230 227 229 228 226 221 221 223 223 219 216 218 220 218 221 224 225 228 230 232 238 243 246 249 255 262 273 282 290 303 308 304
295 283 274 279 282 284 276 256 245 245 242 238 238 237 235 229 225 225 224 226 227 225 222 217 219 223 221 218 217 219 220 221 223 223 224 227 230 235 238 241 246 252 256 266 273 281 297 297 298
291 290 288 263 284 289 288 271 253 239 239 239 235 231 229 232 225 221 223 222 225 224 222 218 214 219 221 220 218 218 219 221 222 222 223 224 227 231 234 237 241 244 248 258 265 274 286 287 291
252 261 277 288 272 279 282 273 271 248 235 238 233 231 225 222 224 223 220 223 222 223 220 220 215 216 219 219 218 218 219 219 220 221 221 223 226 227 230 233 237 243 241 250 259 264 274 276 281
246 270 259 286 285 259 275 265 292 193 193 225 223 230 221 216 217 214 216 217 217 221 220 221 218 217 217 217 217 219 218 218 219 220 220 221 224 225 228 231 235 239 239 246 254 258 267 269 274